This is the latest recevied weather packets stored in our database for station/object KC5TIL-3. If no packets are shown the sender has not sent any weather packets the latest 10 day(s).
| Time | Temp. | Humidity | Pressure | Rain* | Wind** | Luminosity | Snow |
|---|---|---|---|---|---|---|---|
| 1777459600 | 17.78° C | 49% | 1010.8 hPa | 0 mm | 3.13 m/s, 332° | - | - |
| 1777459301 | 18.33° C | 50% | 1010.8 hPa | 0 mm | 3.13 m/s, 164° | - | - |
| 1777459000 | 18.33° C | 52% | 1010.8 hPa | 0 mm | 3.58 m/s, 15° | - | - |
| 1777458404 | 18.33° C | 54% | 1010.8 hPa | 0 mm | 3.13 m/s, 55° | - | - |
| 1777458102 | 18.89° C | 55% | 1010.8 hPa | 0 mm | 3.13 m/s, 351° | - | - |
| 1777457502 | 18.89° C | 55% | 1010.8 hPa | 0 mm | 2.68 m/s, 344° | - | - |
| 1777457200 | 18.89° C | 56% | 1010.8 hPa | 0 mm | 4.02 m/s, 26° | - | - |
| 1777456604 | 18.89° C | 58% | 1010.8 hPa | 0 mm | 4.02 m/s, 9° | - | - |
| 1777456293 | 18.89° C | 59% | 1010.8 hPa | 0 mm | 3.13 m/s, 43° | - | - |
| 1777455395 | 19.44° C | 58% | 1010.8 hPa | 0 mm | 3.13 m/s, 32° | - | - |
| 1777454484 | 19.44° C | 60% | 1010.8 hPa | 0 mm | 2.68 m/s, 313° | - | - |
| 1777454186 | 19.44° C | 60% | 1010.8 hPa | 0 mm | 2.24 m/s, 351° | - | - |
| 1777453888 | 19.44° C | 61% | 1010.8 hPa | 0 mm | 3.13 m/s, 37° | - | - |
| 1777453586 | 19.44° C | 61% | 1009.8 hPa | 0 mm | 2.68 m/s, 53° | - | - |
| 1777453289 | 19.44° C | 62% | 1009.8 hPa | 0 mm | 2.24 m/s, 29° | - | - |
| 1777452990 | 19.44° C | 62% | 1009.8 hPa | 0 mm | 2.68 m/s, 26° | - | - |
| 1777452680 | 19.44° C | 62% | 1010.8 hPa | 0 mm | 2.24 m/s, 21° | - | - |
| 1777452381 | 19.44° C | 63% | 1010.8 hPa | 0 mm | 2.68 m/s, 34° | - | - |
| 1777452083 | 19.44° C | 63% | 1010.8 hPa | 0 mm | 1.79 m/s, 327° | - | - |
| 1777451777 | 19.44° C | 63% | 1009.8 hPa | 0 mm | 1.79 m/s, 9° | - | - |
| 1777451180 | 20° C | 64% | 1009.8 hPa | 0 mm | 3.13 m/s, 356° | - | - |
| 1777450566 | 20° C | 63% | 1010.8 hPa | 0 mm | 2.68 m/s, 67° | - | - |
| 1777450268 | 20° C | 63% | 1010.8 hPa | 0 mm | 1.79 m/s, 25° | - | - |
| 1777449967 | 20° C | 63% | 1010.8 hPa | 0 mm | 1.34 m/s, 337° | - | - |
| 1777449371 | 20° C | 62% | 1010.8 hPa | 0 mm | 3.58 m/s, 43° | - | - |
* Rain latest hour (hover to see other rain measurements)
** Current wind speed in m/s (hover to see current wind gust speed)